| time (UTC) | temp C | wind direction | speed KPH | gust KPH | rain 1hr cm | rain 24hr cm | rain mn cm | humidity % | barometer mb |
| 20260505102149 | 13 | 139 | 9.7 | 16.1 | 0.00 | 0.00 | 0.00 | 60 | 1011.5 |
| 20260505101647 | 13 | 145 | 8.0 | 14.5 | 0.00 | 0.00 | 0.00 | 60 | 1011.5 |
| 20260505101143 | 13 | 172 | 8.0 | 11.3 | 0.00 | 0.00 | 0.00 | 61 | 1011.5 |
| 20260505100639 | 13 | 162 | 4.8 | 12.9 | 0.00 | 0.00 | 0.00 | 61 | 1011.4 |
| 20260505100137 | 13 | 161 | 4.8 | 17.7 | 0.00 | 0.00 | 0.00 | 63 | 1011.5 |
| 20260505095632 | 13 | 152 | 4.8 | 14.5 | 0.00 | 0.00 | 0.00 | 64 | 1011.4 |
| 20260505095130 | 13 | 154 | 11.3 | 17.7 | 0.00 | 0.00 | 0.00 | 64 | 1011.5 |
| 20260505094626 | 13 | 142 | 6.4 | 17.7 | 0.00 | 0.00 | 0.00 | 64 | 1011.7 |
| 20260505094122 | 13 | 148 | 11.3 | 20.9 | 0.00 | 0.00 | 0.00 | 64 | 1011.7 |
| 20260505093619 | 13 | 157 | 9.7 | 16.1 | 0.00 | 0.00 | 0.00 | 63 | 1011.7 |
| 20260505093116 | 13 | 157 | 8.0 | 19.3 | 0.00 | 0.00 | 0.00 | 61 | 1011.5 |
| 20260505092613 | 13 | 137 | 9.7 | 20.9 | 0.00 | 0.00 | 0.00 | 61 | 1011.7 |
| 20260505092112 | 13 | 130 | 8.0 | 17.7 | 0.00 | 0.00 | 0.00 | 60 | 1011.4 |
| 20260505091608 | 13 | 153 | 6.4 | 16.1 | 0.00 | 0.00 | 0.00 | 60 | 1011.5 |
| 20260505091106 | 13 | 134 | 8.0 | 9.7 | 0.00 | 0.00 | 0.00 | 60 | 1011.6 |
| 20260505090604 | 13 | 138 | 4.8 | 16.1 | 0.00 | 0.00 | 0.00 | 59 | 1011.6 |
| 20260505085559 | 13 | 134 | 6.4 | 24.1 | 0.00 | 0.00 | 0.00 | 64 | 1011.6 |
| 20260505085057 | 13 | 162 | 8.0 | 14.5 | 0.00 | 0.00 | 0.00 | 64 | 1011.6 |
| 20260505084555 | 13 | 176 | 12.9 | 14.5 | 0.00 | 0.00 | 0.00 | 64 | 1011.9 |
| 20260505084053 | 13 | 153 | 4.8 | 11.3 | 0.00 | 0.00 | 0.00 | 64 | 1011.8 |
| 20260505083550 | 13 | 152 | 4.8 | 19.3 | 0.00 | 0.00 | 0.00 | 64 | 1011.8 |
| 20260505083046 | 13 | 141 | 4.8 | 14.5 | 0.00 | 0.00 | 0.00 | 63 | 1011.8 |
| 20260505082542 | 13 | 148 | 4.8 | 17.7 | 0.00 | 0.00 | 0.00 | 63 | 1011.9 |
| 20260505082039 | 13 | 126 | 4.8 | 14.5 | 0.00 | 0.00 | 0.00 | 62 | 1011.9 |
| 20260505081535 | 13 | 120 | 8.0 | 12.9 | 0.00 | 0.00 | 0.00 | 63 | 1011.8 |
| 20260505081033 | 13 | 116 | 17.7 | 22.5 | 0.00 | 0.00 | 0.00 | 62 | 1011.9 |
| 20260505080529 | 13 | 155 | 14.5 | 19.3 | 0.00 | 0.00 | 0.00 | 62 | 1011.8 |
| 20260505080026 | 13 | 140 | 8.0 | 11.3 | 0.00 | 0.00 | 0.00 | 62 | 1011.9 |
| 20260505075522 | 13 | 140 | 9.7 | 17.7 | 0.00 | 0.00 | 0.00 | 63 | 1012.2 |
| 20260505075019 | 13 | 143 | 11.3 | 19.3 | 0.00 | 0.00 | 0.00 | 62 | 1012.0 |
| 20260505074516 | 13 | 137 | 9.7 | 20.9 | 0.00 | 0.00 | 0.00 | 62 | 1011.9 |
| 20260505074013 | 13 | 170 | 8.0 | 17.7 | 0.00 | 0.00 | 0.00 | 61 | 1012.0 |
| 20260505073510 | 13 | 169 | 14.5 | 27.4 | 0.00 | 0.00 | 0.00 | 60 | 1012.3 |
| 20260505073009 | 13 | 174 | 6.4 | 24.1 | 0.00 | 0.00 | 0.00 | 58 | 1012.2 |
| 20260505072504 | 13 | 157 | 6.4 | 33.8 | 0.00 | 0.00 | 0.00 | 58 | 1012.3 |
| 20260505072000 | 13 | 156 | 20.9 | 24.1 | 0.00 | 0.00 | 0.00 | 56 | 1012.2 |
| 20260505071455 | 13 | 180 | 17.7 | 24.1 | 0.00 | 0.00 | 0.00 | 55 | 1012.0 |
| 20260505070954 | 13 | 156 | 6.4 | 19.3 | 0.00 | 0.00 | 0.00 | 55 | 1012.2 |
| 20260505070450 | 13 | 139 | 19.3 | 24.1 | 0.00 | 0.00 | 0.00 | 54 | 1012.0 |
| 20260505065946 | 13 | 174 | 12.9 | 33.8 | 0.00 | 0.00 | 0.00 | 54 | 1012.0 |
| 20260505065443 | 13 | 155 | 11.3 | 24.1 | 0.00 | 0.00 | 0.00 | 54 | 1012.3 |
| 20260505064940 | 13 | 169 | 19.3 | 20.9 | 0.00 | 0.00 | 0.00 | 54 | 1012.3 |
| 20260505064437 | 13 | 142 | 17.7 | 32.2 | 0.00 | 0.00 | 0.00 | 54 | 1012.2 |
| 20260505063935 | 13 | 144 | 16.1 | 33.8 | 0.00 | 0.00 | 0.00 | 54 | 1012.2 |
| 20260505063431 | 13 | 147 | 11.3 | 25.7 | 0.00 | 0.00 | 0.00 | 54 | 1012.4 |
| 20260505062928 | 13 | 152 | 14.5 | 29.0 | 0.00 | 0.00 | 0.00 | 53 | 1012.0 |
| 20260505062425 | 13 | 170 | 27.4 | 40.2 | 0.00 | 0.00 | 0.00 | 54 | 1012.0 |
| 20260505061921 | 13 | 192 | 17.7 | 38.6 | 0.00 | 0.00 | 0.00 | 55 | 1012.2 |
| 20260505061420 | 13 | 180 | 22.5 | 29.0 | 0.00 | 0.00 | 0.00 | 54 | 1012.0 |
| 20260505060917 | 13 | 178 | 24.1 | 41.8 | 0.00 | 0.00 | 0.00 | 55 | 1012.3 |
| 20260505060414 | 13 | 177 | 14.5 | 32.2 | 0.00 | 0.00 | 0.00 | 57 | 1012.0 |
| 20260505055910 | 13 | 188 | 14.5 | 29.0 | 0.00 | 0.00 | 0.00 | 57 | 1012.3 |
| 20260505055406 | 13 | 187 | 8.0 | 37.0 | 0.00 | 0.00 | 0.00 | 57 | 1012.2 |
| 20260505054903 | 13 | 182 | 20.9 | 33.8 | 0.00 | 0.00 | 0.00 | 59 | 1012.2 |
| 20260505054400 | 13 | 184 | 9.7 | 29.0 | 0.00 | 0.00 | 0.00 | 60 | 1012.0 |
| 20260505053859 | 13 | 154 | 12.9 | 33.8 | 0.00 | 0.00 | 0.00 | 59 | 1012.2 |
| 20260505053355 | 13 | 184 | 11.3 | 40.2 | 0.00 | 0.00 | 0.00 | 58 | 1012.0 |
| 20260505052852 | 13 | 161 | 22.5 | 33.8 | 0.00 | 0.00 | 0.00 | 58 | 1012.2 |
| 20260505052349 | 13 | 172 | 20.9 | 32.2 | 0.00 | 0.00 | 0.00 | 59 | 1011.8 |
| 20260505051846 | 13 | 156 | 16.1 | 30.6 | 0.00 | 0.00 | 0.00 | 59 | 1011.8 |
| 20260505051343 | 13 | 139 | 17.7 | 37.0 | 0.00 | 0.00 | 0.00 | 59 | 1011.9 |
| 20260505050842 | 13 | 142 | 24.1 | 35.4 | 0.00 | 0.00 | 0.00 | 59 | 1011.9 |
| 20260505050340 | 13 | 149 | 16.1 | 37.0 | 0.00 | 0.00 | 0.00 | 59 | 1011.9 |
| 20260505041307 | 16 | 145 | 8.0 | 24.1 | 0.00 | 0.00 | 0.00 | 42 | 1011.1 |
| 20260505040804 | 16 | 178 | 6.4 | 29.0 | 0.00 | 0.00 | 0.00 | 40 | 1011.0 |
| 20260505040301 | 16 | 161 | 9.7 | 22.5 | 0.00 | 0.00 | 0.00 | 40 | 1011.0 |
| 20260505035758 | 17 | 141 | 9.7 | 30.6 | 0.00 | 0.00 | 0.00 | 40 | 1010.7 |
| 20260505035254 | 16 | 191 | 11.3 | 24.1 | 0.00 | 0.00 | 0.00 | 41 | 1010.8 |
| 20260505034751 | 17 | 188 | 24.1 | 37.0 | 0.00 | 0.00 | 0.00 | 40 | 1010.4 |
| 20260505034248 | 17 | 187 | 11.3 | 24.1 | 0.00 | 0.00 | 0.00 | 40 | 1010.6 |
| 20260505033744 | 17 | 168 | 11.3 | 27.4 | 0.00 | 0.00 | 0.00 | 40 | 1010.3 |
| 20260505033242 | 17 | 163 | 4.8 | 25.7 | 0.00 | 0.00 | 0.00 | 43 | 1010.4 |
| 20260505032740 | 16 | 185 | 12.9 | 20.9 | 0.00 | 0.00 | 0.00 | 44 | 1010.2 |
| 20260505032236 | 16 | 180 | 9.7 | 17.7 | 0.00 | 0.00 | 0.00 | 46 | 1010.2 |
| 20260505031733 | 16 | 132 | 6.4 | 20.9 | 0.00 | 0.00 | 0.00 | 45 | 1010.3 |
| 20260505031229 | 17 | 167 | 9.7 | 25.7 | 0.00 | 0.00 | 0.00 | 43 | 1010.2 |
| 20260505030727 | 17 | 189 | 12.9 | 22.5 | 0.00 | 0.00 | 0.00 | 41 | 1010.4 |
| 20260505030223 | 17 | 183 | 17.7 | 29.0 | 0.00 | 0.00 | 0.00 | 41 | 1010.2 |
| 20260505025718 | 17 | 179 | 16.1 | 27.4 | 0.00 | 0.00 | 0.00 | 41 | 1010.2 |
| 20260505025217 | 17 | 172 | 8.0 | 20.9 | 0.00 | 0.00 | 0.00 | 42 | 1010.0 |
| 20260505024715 | 17 | 177 | 6.4 | 20.9 | 0.00 | 0.00 | 0.00 | 42 | 1010.0 |
| 20260505024211 | 17 | 172 | 17.7 | 25.7 | 0.00 | 0.00 | 0.00 | 42 | 1010.1 |
| 20260505023709 | 17 | 175 | 12.9 | 22.5 | 0.00 | 0.00 | 0.00 | 41 | 1010.0 |
| 20260505023206 | 17 | 172 | 17.7 | 22.5 | 0.00 | 0.00 | 0.00 | 41 | 1009.8 |
| 20260505022704 | 17 | 169 | 9.7 | 32.2 | 0.00 | 0.00 | 0.00 | 41 | 1009.8 |
| 20260505022200 | 18 | 186 | 20.9 | 33.8 | 0.00 | 0.00 | 0.00 | 41 | 1009.8 |
| 20260505021657 | 18 | 185 | 14.5 | 27.4 | 0.00 | 0.00 | 0.00 | 39 | 1009.8 |
| 20260505021154 | 18 | 165 | 8.0 | 27.4 | 0.00 | 0.00 | 0.00 | 37 | 1009.6 |
| 20260505020649 | 18 | 179 | 14.5 | 22.5 | 0.00 | 0.00 | 0.00 | 37 | 1009.5 |
| 20260505020145 | 18 | 161 | 11.3 | 25.7 | 0.00 | 0.00 | 0.00 | 37 | 1009.8 |
| 20260505015643 | 18 | 165 | 9.7 | 27.4 | 0.00 | 0.00 | 0.00 | 37 | 1009.8 |
| 20260505015139 | 18 | 165 | 19.3 | 29.0 | 0.00 | 0.00 | 0.00 | 36 | 1009.5 |
| 20260505014636 | 18 | 144 | 22.5 | 35.4 | 0.00 | 0.00 | 0.00 | 36 | 1009.8 |
| 20260505014133 | 18 | 156 | 19.3 | 33.8 | 0.00 | 0.00 | 0.00 | 36 | 1009.8 |
| 20260505013631 | 18 | 164 | 12.9 | 27.4 | 0.00 | 0.00 | 0.00 | 36 | 1009.9 |
| 20260505013128 | 19 | 162 | 12.9 | 25.7 | 0.00 | 0.00 | 0.00 | 36 | 1009.4 |
| 20260505012626 | 19 | 140 | 14.5 | 29.0 | 0.00 | 0.00 | 0.00 | 35 | 1009.9 |
| 20260505012122 | 20 | 171 | 24.1 | 24.1 | 0.00 | 0.00 | 0.00 | 30 | 1009.8 |
| 20260505011618 | 21 | 183 | 8.0 | 11.3 | 0.00 | 0.00 | 0.00 | 30 | 1009.8 |
| 20260505011116 | 22 | 158 | 6.4 | 9.7 | 0.00 | 0.00 | 0.00 | 28 | 1009.8 |
| 20260505010611 | 22 | 17 | 0.0 | 4.8 | 0.00 | 0.00 | 0.00 | 26 | 1009.6 |
| 20260505010108 | 22 | 31 | 1.6 | 4.8 | 0.00 | 0.00 | 0.00 | 27 | 1009.9 |
| 20260505005604 | 21 | 358 | 1.6 | 4.8 | 0.00 | 0.00 | 0.00 | 27 | 1009.9 |
| 20260505005101 | 21 | 91 | 1.6 | 4.8 | 0.00 | 0.00 | 0.00 | 29 | 1009.9 |
| 20260505004558 | 21 | 1 | 3.2 | 8.0 | 0.00 | 0.00 | 0.00 | 27 | 1009.9 |
| 20260505004055 | 22 | 80 | 3.2 | 4.8 | 0.00 | 0.00 | 0.00 | 27 | 1010.1 |
| 20260505003552 | 21 | 57 | 3.2 | 6.4 | 0.00 | 0.00 | 0.00 | 29 | 1010.1 |
| 20260505003049 | 20 | 149 | 4.8 | 6.4 | 0.00 | 0.00 | 0.00 | 30 | 1010.0 |
| 20260505002544 | 20 | 180 | 6.4 | 6.4 | 0.00 | 0.00 | 0.00 | 30 | 1009.9 |
| 20260505002043 | 20 | 118 | 3.2 | 8.0 | 0.00 | 0.00 | 0.00 | 32 | 1009.9 |
| 20260505001540 | 20 | 124 | 6.4 | 14.5 | 0.00 | 0.00 | 0.00 | 31 | 1009.9 |
| 20260505001037 | 20 | 333 | 1.6 | 8.0 | 0.00 | 0.00 | 0.00 | 32 | 1009.9 |
| 20260505000535 | 20 | 79 | 11.3 | 14.5 | 0.00 | 0.00 | 0.00 | 31 | 1010.0 |
| 20260505000032 | 20 | 85 | 3.2 | 11.3 | 0.00 | 0.00 | 0.00 | 30 | 1010.1 |
| 20260504235529 | 20 | 85 | 4.8 | 11.3 | 0.00 | 0.00 | 0.00 | 31 | 1010.0 |
| 20260504235025 | 20 | 146 | 4.8 | 9.7 | 0.00 | 0.00 | 0.00 | 30 | 1010.2 |
| 20260504234522 | 20 | 120 | 1.6 | 12.9 | 0.00 | 0.00 | 0.00 | 30 | 1010.1 |
| 20260504234020 | 21 | 42 | 4.8 | 11.3 | 0.00 | 0.00 | 0.00 | 32 | 1010.0 |
| 20260504233515 | 20 | 41 | 4.8 | 12.9 | 0.00 | 0.00 | 0.00 | 33 | 1010.2 |
| 20260504233012 | 20 | 353 | 4.8 | 9.7 | 0.00 | 0.00 | 0.00 | 32 | 1010.3 |
| 20260504232509 | 20 | 319 | 12.9 | 24.1 | 0.00 | 0.00 | 0.00 | 32 | 1010.2 |
| 20260504232007 | 20 | 65 | 9.7 | 25.7 | 0.00 | 0.00 | 0.00 | 33 | 1010.6 |
| 20260504231503 | 20 | 66 | 9.7 | 20.9 | 0.00 | 0.00 | 0.00 | 33 | 1010.4 |
| 20260504230959 | 20 | 66 | 11.3 | 20.9 | 0.00 | 0.00 | 0.00 | 33 | 1010.3 |
| 20260504230455 | 20 | 78 | 16.1 | 32.2 | 0.00 | 0.00 | 0.00 | 33 | 1010.3 |
| 20260504225955 | 19 | 40 | 16.1 | 29.0 | 0.00 | 0.00 | 0.00 | 32 | 1010.3 |
| 20260504225451 | 20 | 74 | 17.7 | 32.2 | 0.00 | 0.00 | 0.00 | 32 | 1010.4 |
| 20260504224948 | 21 | 62 | 8.0 | 29.0 | 0.00 | 0.00 | 0.00 | 31 | 1010.2 |
| 20260504224445 | 22 | 359 | 8.0 | 11.3 | 0.00 | 0.00 | 0.00 | 28 | 1010.3 |
| 20260504223942 | 21 | 29 | 3.2 | 8.0 | 0.00 | 0.00 | 0.00 | 29 | 1010.2 |
| 20260504223438 | 21 | 307 | 3.2 | 11.3 | 0.00 | 0.00 | 0.00 | 28 | 1010.3 |
| 20260504222933 | 21 | 355 | 9.7 | 12.9 | 0.00 | 0.00 | 0.00 | 27 | 1010.1 |
| 20260504222431 | 21 | 315 | 9.7 | 11.3 | 0.00 | 0.00 | 0.00 | 28 | 1010.2 |
| 20260504221929 | 21 | 345 | 6.4 | 17.7 | 0.00 | 0.00 | 0.00 | 29 | 1010.2 |
| 20260504221425 | 21 | 330 | 6.4 | 17.7 | 0.00 | 0.00 | 0.00 | 31 | 1010.1 |
| 20260504220923 | 20 | 309 | 8.0 | 22.5 | 0.00 | 0.00 | 0.00 | 31 | 1010.2 |
| 20260504220419 | 20 | 287 | 11.3 | 17.7 | 0.00 | 0.00 | 0.00 | 31 | 1010.3 |
| 20260504215916 | 20 | 287 | 8.0 | 20.9 | 0.00 | 0.00 | 0.00 | 33 | 1010.3 |
| 20260504215413 | 20 | 293 | 9.7 | 24.1 | 0.00 | 0.00 | 0.00 | 34 | 1010.2 |
| 20260504214909 | 20 | 262 | 12.9 | 29.0 | 0.00 | 0.00 | 0.00 | 34 | 1010.6 |
| 20260504214406 | 20 | 280 | 6.4 | 19.3 | 0.00 | 0.00 | 0.00 | 36 | 1010.7 |
| 20260504213903 | 19 | 316 | 8.0 | 20.9 | 0.00 | 0.00 | 0.00 | 35 | 1010.6 |
| 20260504213359 | 19 | 275 | 22.5 | 29.0 | 0.00 | 0.00 | 0.00 | 36 | 1010.4 |
| 20260504212856 | 18 | 251 | 17.7 | 32.2 | 0.00 | 0.00 | 0.00 | 36 | 1010.6 |
| 20260504212352 | 18 | 295 | 16.1 | 30.6 | 0.00 | 0.00 | 0.00 | 37 | 1010.6 |
| 20260504211850 | 18 | 266 | 9.7 | 32.2 | 0.00 | 0.00 | 0.00 | 38 | 1010.7 |
| 20260504211346 | 18 | 273 | 14.5 | 33.8 | 0.00 | 0.00 | 0.00 | 37 | 1010.6 |
| 20260504210843 | 18 | 268 | 17.7 | 27.4 | 0.00 | 0.00 | 0.00 | 36 | 1011.0 |
| 20260504210340 | 19 | 249 | 30.6 | 30.6 | 0.00 | 0.00 | 0.00 | 34 | 1011.1 |
| 20260504205837 | 19 | 307 | 14.5 | 30.6 | 0.00 | 0.00 | 0.00 | 34 | 1010.9 |
| 20260504205335 | 19 | 265 | 19.3 | 40.2 | 0.00 | 0.00 | 0.00 | 33 | 1011.0 |
| 20260504204833 | 19 | 221 | 14.5 | 25.7 | 0.00 | 0.00 | 0.00 | 32 | 1011.0 |
| 20260504204331 | 20 | 303 | 12.9 | 29.0 | 0.00 | 0.00 | 0.00 | 32 | 1010.9 |
| 20260504203830 | 20 | 257 | 8.0 | 32.2 | 0.00 | 0.00 | 0.00 | 33 | 1011.0 |
| 20260504203327 | 20 | 327 | 4.8 | 24.1 | 0.00 | 0.00 | 0.00 | 33 | 1010.8 |
| 20260504202822 | 20 | 272 | 8.0 | 19.3 | 0.00 | 0.00 | 0.00 | 32 | 1010.9 |
| 20260504202320 | 20 | 258 | 8.0 | 24.1 | 0.00 | 0.00 | 0.00 | 33 | 1010.8 |
| 20260504201817 | 20 | 280 | 17.7 | 27.4 | 0.00 | 0.00 | 0.00 | 32 | 1010.8 |
| 20260504201314 | 21 | 249 | 6.4 | 14.5 | 0.00 | 0.00 | 0.00 | 30 | 1010.7 |
| 20260504200811 | 22 | 217 | 0.0 | 8.0 | 0.00 | 0.00 | 0.00 | 28 | 1010.7 |
| 20260504200308 | 21 | 187 | 3.2 | 20.9 | 0.00 | 0.00 | 0.00 | 28 | 1010.9 |
| 20260504195804 | 22 | 84 | 6.4 | 11.3 | 0.00 | 0.00 | 0.00 | 27 | 1010.9 |
| 20260504195300 | 21 | 182 | 9.7 | 12.9 | 0.00 | 0.00 | 0.00 | 27 | 1010.9 |
| 20260504194757 | 21 | 178 | 4.8 | 20.9 | 0.00 | 0.00 | 0.00 | 28 | 1011.0 |
| 20260504194253 | 21 | 159 | 9.7 | 14.5 | 0.00 | 0.00 | 0.00 | 28 | 1010.9 |
| 20260504193749 | 21 | 156 | 8.0 | 17.7 | 0.00 | 0.00 | 0.00 | 29 | 1010.9 |
| 20260504193247 | 21 | 99 | 6.4 | 16.1 | 0.00 | 0.00 | 0.00 | 27 | 1011.2 |
| 20260504192745 | 21 | 168 | 14.5 | 17.7 | 0.00 | 0.00 | 0.00 | 28 | 1011.1 |
| 20260504192243 | 21 | 132 | 8.0 | 11.3 | 0.00 | 0.00 | 0.00 | 29 | 1011.1 |
| 20260504191741 | 21 | 116 | 4.8 | 16.1 | 0.00 | 0.00 | 0.00 | 28 | 1011.4 |
| 20260504191238 | 21 | 178 | 16.1 | 19.3 | 0.00 | 0.00 | 0.00 | 28 | 1011.4 |
| 20260504190733 | 21 | 186 | 9.7 | 17.7 | 0.00 | 0.00 | 0.00 | 28 | 1011.2 |
| 20260504190230 | 21 | 104 | 4.8 | 14.5 | 0.00 | 0.00 | 0.00 | 29 | 1011.2 |
| 20260504185726 | 21 | 159 | 16.1 | 17.7 | 0.00 | 0.00 | 0.00 | 28 | 1011.5 |
| 20260504185223 | 21 | 120 | 8.0 | 19.3 | 0.00 | 0.00 | 0.00 | 29 | 1011.6 |
| 20260504184719 | 21 | 132 | 9.7 | 22.5 | 0.00 | 0.00 | 0.00 | 28 | 1011.5 |
| 20260504184216 | 21 | 116 | 14.5 | 32.2 | 0.00 | 0.00 | 0.00 | 29 | 1011.6 |
| 20260504183711 | 21 | 95 | 8.0 | 37.0 | 0.00 | 0.00 | 0.00 | 30 | 1011.7 |
| 20260504183209 | 22 | 151 | 8.0 | 24.1 | 0.00 | 0.00 | 0.00 | 30 | 1011.5 |
| 20260504182707 | 22 | 159 | 6.4 | 24.1 | 0.00 | 0.00 | 0.00 | 29 | 1011.8 |
| 20260504182204 | 21 | 131 | 9.7 | 30.6 | 0.00 | 0.00 | 0.00 | 29 | 1011.7 |
| 20260504181701 | 21 | 131 | 14.5 | 33.8 | 0.00 | 0.00 | 0.00 | 30 | 1011.8 |
| 20260504181159 | 21 | 149 | 6.4 | 20.9 | 0.00 | 0.00 | 0.00 | 30 | 1011.8 |
| 20260504180657 | 22 | 129 | 8.0 | 16.1 | 0.00 | 0.00 | 0.00 | 29 | 1012.0 |
| 20260504180156 | 21 | 167 | 11.3 | 29.0 | 0.00 | 0.00 | 0.00 | 31 | 1012.0 |
| 20260504175652 | 21 | 152 | 16.1 | 27.4 | 0.00 | 0.00 | 0.00 | 31 | 1012.2 |
| 20260504175149 | 21 | 115 | 11.3 | 25.7 | 0.00 | 0.00 | 0.00 | 30 | 1012.2 |
| 20260504174647 | 21 | 148 | 11.3 | 29.0 | 0.00 | 0.00 | 0.00 | 31 | 1012.0 |
| 20260504174144 | 21 | 199 | 14.5 | 38.6 | 0.00 | 0.00 | 0.00 | 31 | 1012.5 |
| 20260504173641 | 21 | 152 | 4.8 | 27.4 | 0.00 | 0.00 | 0.00 | 33 | 1012.3 |
| 20260504173138 | 21 | 142 | 24.1 | 41.8 | 0.00 | 0.00 | 0.00 | 31 | 1012.3 |
| 20260504172635 | 20 | 124 | 24.1 | 32.2 | 0.00 | 0.00 | 0.00 | 32 | 1012.4 |
| 20260504172131 | 20 | 172 | 9.7 | 32.2 | 0.00 | 0.00 | 0.00 | 32 | 1012.3 |
| 20260504171628 | 20 | 154 | 6.4 | 25.7 | 0.00 | 0.00 | 0.00 | 33 | 1012.4 |
| 20260504171125 | 20 | 155 | 11.3 | 30.6 | 0.00 | 0.00 | 0.00 | 33 | 1012.4 |
| 20260504170621 | 20 | 158 | 6.4 | 29.0 | 0.00 | 0.00 | 0.00 | 34 | 1012.7 |
| 20260504170119 | 20 | 117 | 27.4 | 27.4 | 0.00 | 0.00 | 0.00 | 32 | 1012.6 |
| 20260504151004 | 17 | 139 | 8.0 | 24.1 | 0.00 | 0.00 | 0.00 | 43 | 1013.2 |
| 20260504150502 | 17 | 136 | 14.5 | 25.7 | 0.00 | 0.00 | 0.00 | 44 | 1013.1 |
| 20260504140928 | 16 | 160 | 9.7 | 19.3 | 0.00 | 0.00 | 0.00 | 46 | 1013.0 |
| 20260504140424 | 16 | 128 | 6.4 | 19.3 | 0.00 | 0.00 | 0.00 | 46 | 1013.1 |
| 20260504130349 | 13 | 170 | 6.4 | 11.3 | 0.00 | 0.00 | 0.00 | 51 | 1013.0 |
| 20260504120312 | 13 | 161 | 11.3 | 19.3 | 0.00 | 0.00 | 0.00 | 51 | 1013.0 |
| 20260504110236 | 15 | 141 | 6.4 | 22.5 | 0.00 | 0.00 | 0.00 | 45 | 1013.1 |